STARLINK-37918, 69831

Orbit data source: Space-Track

STARLINK-37918, 69831 is a payload satellite owned by SpaceX/Seattle (US) in LEO that was launched on Sun, 05 Jul 2026 UTC via an FALCON 9 launch vehicle from the Air Force Eastern Test Range (AFETR). Payload-class satellites include a variety of spacecraft equipped with specific instruments for various scientific and technological missions. These include communications satellites like Starlink; space stations such as the ISS; scientific satellites like the Hubble; Earth observation satellites from companies like Planet Labs, Umbra, and HawkEye 360; GPS; miniature CubeSats for education and research; and military/defense satellites.

Loading next visibility...
Identifier
69831, 2026-154N
Orbit
LEO
Country
Flag of USUS
Related business
Manufacturer
SpaceX/Seattle
Mission
Operational spacecraft
Bus & Motor
STARLINK V2MO, Unknown motor
Mass
575 kg wet, ~530 kg dry
Launch date (UTC)
2026-07-05 (2 months ago)
Launch vehicle
FALCON 9
Launch site
Air Force Eastern Test Range (AFETR)
Object type
Payload
Rocket body
Debris
Shape & HBR
BOX + PAN, 17.7 m
Radar Cross Section
Large (>1 m²)

Expand to show TLE details & history
Last TLE update: 7 hours ago

TLE from 7 hours ago
0 STARLINK-37918
1 69831U 26154N   26236.64355405  .00022439  00000-0  65198-3 0  9998
2 69831  53.1595  97.3737 0001674  93.2638 266.8556 15.35412967  9114
Epoch: 2026-08-24T15:26Z
TLE epoch observation values (Epoch: 2026-08-24T15:26:43.069Z)
Latitude
-0.00009°
Longitude
-107.22813°
Altitude
460.659 km
Speed
7.638 km/s
True Right ascension
06h 29m 29s
True Declination
0° 00' 00"
Sunlit
Object was in daylight at epoch
Visualization orbit readout
Latitude
Unknown
Longitude
Unknown
Altitude
Unknown
Speed
Unknown
Apparent Right ascension
Unknown
Apparent Declination
Unknown
Sunlit
N/A
Visualization observer readout
Local Sidereal Time
13:47:31
Azimuth
Unknown
Elevation
Unknown
Doppler factor
Unknown
Orbital elements
Apogee altitude
461.096 km
Perigee altitude
458.807 km
Semi-major axis
6,838.088 km
Eccentricity
0.00017
Inclination
53.1595°
RAAN
97.3737°
Arg. of periapsis
93.2638°
True anomaly
266.83645°
Mean anomaly
266.8556°
Eccentric anomaly
266.84602°
Mean motion
3.83832 °/min
Orbital period
93.79 mins
BSTAR
0.00065198
Loading maneuver chart data...
Computing Atmospheric mass density...
Loading historical data...
Loading historical data...
Loading historical data...
Loading historical data...
Loading historical data...
Loading historical data...
Loading historical data...

Documentation

Showing up to 5 results
|